CGYQB CYTZ-CYTZ

Flight info

Callsign CGYQB
Flight time 0h 8m
Altitude 3000
Route CYXU/09 VFR EASTBOUND
Aircraft BE58

Departure

Time 2026-04-26 19:52
Airport Billy Bishop Toronto City Airport (CYTZ)

Arrival

Time 2026-04-26 20:00
Airport Billy Bishop Toronto City Airport (CYTZ)
Time Latitude Longitude Altitude Speed Heading
2026-04-26 19:43 43.63249 -79.39421 255 ft 0 kts 120°
2026-04-26 19:45 43.63243 -79.39407 255 ft 0 kts 124°
2026-04-26 19:49 43.63240 -79.39401 255 ft 5 kts 124°
2026-04-26 19:49 43.63179 -79.39344 255 ft 16 kts 154°
2026-04-26 19:50 43.63103 -79.39288 255 ft 9 kts 137°
2026-04-26 19:50 43.63088 -79.39197 260 ft 19 kts 71°
2026-04-26 19:50 43.63129 -79.39033 256 ft 9 kts 69°
2026-04-26 19:50 43.63131 -79.39027 256 ft 0 kts 69°
2026-04-26 19:51 43.63101 -79.38960 255 ft 17 kts 200°
2026-04-26 19:51 43.62995 -79.39321 265 ft 67 kts 248°
2026-04-26 19:51 43.62833 -79.39986 494 ft 73 kts 246°
2026-04-26 19:51 43.62562 -79.40594 725 ft 77 kts 215°
2026-04-26 19:52 43.62042 -79.40492 891 ft 88 kts 147°
2026-04-26 19:52 43.61560 -79.39953 1120 ft 91 kts 136°
2026-04-26 19:52 43.61107 -79.39333 1348 ft 91 kts 123°
2026-04-26 19:52 43.60996 -79.38527 1523 ft 93 kts 81°
2026-04-26 19:53 43.61154 -79.37624 1563 ft 105 kts 71°
2026-04-26 19:53 43.61486 -79.36687 1560 ft 112 kts 56°
2026-04-26 19:53 43.61999 -79.35805 1401 ft 121 kts 51°
2026-04-26 19:53 43.62551 -79.34985 1187 ft 113 kts 44°
2026-04-26 19:54 43.63238 -79.34805 1194 ft 107 kts 333°
2026-04-26 19:54 43.63623 -79.35677 1024 ft 115 kts 283°
2026-04-26 19:54 43.63611 -79.36771 781 ft 115 kts 257°
2026-04-26 19:54 43.63400 -79.37701 590 ft 97 kts 248°
2026-04-26 19:55 43.63168 -79.38588 383 ft 94 kts 249°
2026-04-26 19:55 43.63001 -79.39294 262 ft 63 kts 249°
2026-04-26 19:55 43.62878 -79.39793 255 ft 68 kts 251°
2026-04-26 19:55 43.62706 -79.40521 418 ft 83 kts 250°
2026-04-26 19:56 43.62783 -79.41244 724 ft 82 kts 313°
2026-04-26 19:56 43.63331 -79.41415 967 ft 88 kts
2026-04-26 19:56 43.63920 -79.41120 1161 ft 92 kts 45°
2026-04-26 19:56 43.64326 -79.40426 1391 ft 91 kts 63°
2026-04-26 19:57 43.64511 -79.39569 1523 ft 98 kts 92°
2026-04-26 19:57 43.64206 -79.38759 1584 ft 108 kts 149°
2026-04-26 19:57 43.63880 -79.37960 1730 ft 103 kts 112°
2026-04-26 19:57 43.63192 -79.37788 1643 ft 127 kts 212°
2026-04-26 19:58 43.63026 -79.38928 1370 ft 137 kts 308°
2026-04-26 19:58 43.63829 -79.39219 681 ft 114 kts 352°
2026-04-26 19:58 43.64456 -79.39465 395 ft 68 kts 339°
2026-04-26 19:58 43.64856 -79.39575 441 ft 62 kts 15°
2026-04-26 19:59 43.65026 -79.39038 668 ft 62 kts 91°
2026-04-26 19:59 43.65075 -79.38407 836 ft 79 kts 74°
2026-04-26 19:59 43.65219 -79.37676 1152 ft 74 kts 95°
2026-04-26 19:59 43.64804 -79.37336 1233 ft 87 kts 199°
2026-04-26 20:00 43.64387 -79.37997 1031 ft 90 kts 240°
2026-04-26 20:00 43.64173 -79.38735 524 ft 76 kts 252°
2026-04-26 20:00 43.64128 -79.38929 548 ft 0 kts 199°